Regional Weather Roundup
Issued by NWS

Home | Current Version | Previous Version | Graphics & Text | Print | Product List | Glossary Off
Versions: 1 2 3 4 5 6 7 8 9 10 11 12 13 14 15 16 17 18 19 20 21 22 23 24 25 26 27 28 29 30 31 32 33 34 35 36 37 38 39 40 41 42 43 44 45 46 47 48 49 50

000
ASUS43 KTOP 310108
RWRKS

WEATHER ROUNDUP FOR KANSAS
NATIONAL WEATHER SERVICE GOODLAND KS
700 PM CST FRI JAN 30 2015

NOTE:  "FAIR" INDICATES FEW OR NO CLOUDS BELOW 12,000 FEET WITH NO
SIGNIFICANT WEATHER AND/OR OBSTRUCTIONS TO VISIBILITY.

KSZ001>006-013>018-027>032-041>047-310200-
NORTHWEST KANSAS

CITY           SKY/WX    TMP DP  RH WIND       PRES   REMARKS
GOODLAND       CLOUDY    36  32  85 S20G26    30.15S WCI  25
HAYS           CLOUDY    37  27  65 S9        30.29S
HILL CITY      CLOUDY    39  32  76 S10       30.25R WCI  32
RUSSELL        CLOUDY    38  33  82 S8        30.29F
$$

KSZ061>065-074>080-084>089-310200-
SOUTHWEST KANSAS

CITY           SKY/WX    TMP DP  RH WIND       PRES   REMARKS
DODGE CITY     LGT SNOW  34  30  85 S14       30.30R FOG     WCI  25
ELKHART          N/A     33  28  81 SE12        N/A  WCI  24
GARDEN CITY    LGT SNOW  31  31 100 S12       30.24F VSB 3/4 WCI  22
LIBERAL        CLOUDY    34  28  80 S5        30.28S
PRATT          CLOUDY    37  28  70 S8        30.34S
$$

KSZ066>073-081>083-090>101-310200-
SOUTHEAST KANSAS

CITY           SKY/WX    TMP DP  RH WIND       PRES   REMARKS
CHANUTE        CLOUDY    38  25  59 SE5       30.40S
COFFEYVILLE    CLOUDY    40  26  57 CALM      30.41F
HUTCHINSON     CLOUDY    40  27  59 S7        30.35F
MEDICINE LODGE   N/A     40  26  57 SE5       30.35S
NEWTON         CLOUDY    39  23  52 S8        30.37F
PARSONS        CLOUDY    39  25  57 CALM      30.41F
WICHITA INTL   CLOUDY    41  26  55 SE7       30.36S
WICHITA JABRA  CLOUDY    40  25  55 SE5       30.36F
WICHITA MCCONL CLOUDY    41  25  53 E6        30.36F
WINFIELD       CLOUDY    43  22  43 SE6       30.39S
$$

KSZ007>012-019>026-033>040-048>060-102>105-310200-
NORTHEAST KANSAS

CITY           SKY/WX    TMP DP  RH WIND       PRES   REMARKS
CONCORDIA      CLOUDY    40  26  57 S16       30.30F WCI  31
EMPORIA        CLOUDY    36  24  62 S6        30.37S
LAWRENCE       CLOUDY    32  22  66 SE5       30.39F
MANHATTAN      CLOUDY    39  26  59 CALM      30.35F
MARYSVILLE     CLOUDY    36  27  69 S6        30.33F
OLATHE IND     CLOUDY    33  22  63 S5        30.39F
OLATHE EXE     CLOUDY    35  23  61 S3        30.38F
SALINA         CLOUDY    42  26  53 S12       30.34F
TOPEKA BILLARD CLOUDY    36  22  56 SE5       30.38F
TOPEKA FORBES  CLOUDY    37  23  56 SE6       30.37F
$$



USA.gov is the U.S. government's official web portal to all federal, state and local government web resources and services.